カタログに戻る

FENGYUN 1C DEB

運用中PO
NORAD 30017·DEBRIS·🇨🇳 China

打ち上げ May 10, 1999 から Taiyuan Satellite Launch Center

Loading…

次のパス (今後24時間)

TLE

最新Source: Space-Track

元期: Sep 14, 2026, 04:10 UTC

1 30017U 99025MS  26257.17427150  .00000610  00000-0  97243-4 0  9991
2 30017  98.7176 322.3241 0216489  46.7152 315.1882 14.61737712 44671

AllMySatでFENGYUN 1C DEBをリアルタイム追跡

Download on the App Store